This demonstration page uses our WeatherBlox Daily Observations layout. Learn more.

Left ArrowRight Arrow

39.51506, -84.39828

Hourly Observations for May 27, 2019

Temp ( °F °C ) Dew Point ( °F °C ) Humidity (%) Winds ( mph kmh ) Pressure ( in mb ) Visibility ( mi km ) Precip ( " mm )
12:15 am 00:15 Clear 65 18.6 64 18 96 96 NNE 3 6 30.05 1018 10 16 0.00 0.00
12:35 am 00:35 Clear 65 18.3 64 17.7 96 96 NNE 3 6 30.05 1018 10 16 0.00 0.00
12:55 am 00:55 Clear 64 18 64 17.5 97 97 Calm 30.05 1018 10 16 0.00 0.00
1:15 am 01:15 Clear 64 17.9 64 17.6 98 98 Calm 30.05 1018 7 11 0.00 0.00
1:35 am 01:35 Clear 64 17.5 63 17.3 99 99 ENE 3 6 30.05 1018 10 16 0.00 0.00
1:55 am 01:55 Clear 64 18 64 17.6 98 98 Calm 30.05 1018 10 16 0.00 0.00
2:15 am 02:15 Clear 63 17.2 62 16.9 98 98 NNE 3 6 30.05 1018 10 16 0.00 0.00
2:35 am 02:35 Clear with Mist and Fog 62 16.9 62 16.6 98 98 Calm 30.04 1017 4 6 0.00 0.00
2:55 am 02:55 Mostly Cloudy with Mist and Fog 62 16.7 62 16.5 99 99 Calm 30.04 1017 1 1 0.00 0.00
3:15 am 03:15 Clear with Mist and Fog 62 16.5 61 16.3 99 99 Calm 30.04 1017 7 11 0.00 0.00
3:35 am 03:35 Clear 62 16.6 62 16.4 99 99 Calm 30.03 1017 10 16 0.00 0.00
3:55 am 03:55 Clear 61 16.1 61 15.9 99 99 Calm 30.03 1017 10 16 0.00 0.00
4:15 am 04:15 Clear 61 16.3 61 16.1 99 99 Calm 30.03 1017 10 16 0.00 0.00
4:35 am 04:35 Partly Cloudy with Mist and Fog 62 16.4 61 16.2 99 99 Calm 30.04 1017 1 1 0.00 0.00
4:55 am 04:55 Mostly Cloudy 61 16.2 61 16 99 99 NE 3 6 30.04 1017 10 16 0.00 0.00
5:15 am 05:15 Cloudy 62 16.8 62 16.5 98 98 Calm 30.04 1017 10 16 0.00 0.00
5:35 am 05:35 Mostly Cloudy 62 16.4 61 16 98 98 Calm 30.04 1017 10 16 0.00 0.00
5:55 am 05:55 Mostly Cloudy 61 16.2 61 15.9 98 98 Calm 30.05 1018 10 16 0.00 0.00
6:15 am 06:15 Sunny with Mist and Fog 61 15.9 60 15.7 99 99 Calm 30.06 1018 5 8 0.00 0.00
6:35 am 06:35 Mostly Cloudy with Fog 60 15.8 60 15.6 99 99 Calm 30.06 1018 1 1 0.00 0.00
6:55 am 06:55 Sunny 61 16 61 15.9 99 99 Calm 30.07 1018 10 16 0.00 0.00
7:15 am 07:15 Sunny 62 16.9 62 16.7 99 99 Calm 30.08 1019 10 16 0.00 0.00
7:35 am 07:35 Sunny 63 17.3 63 17 98 98 Calm 30.07 1018 10 16 0.00 0.00
7:55 am 07:55 Sunny 65 18.3 64 17.6 96 96 ENE 6 9 30.07 1018 10 16 0.00 0.00
8:15 am 08:15 Cloudy with Mist and Fog 63 17.4 62 16.7 96 96 ENE 7 11 30.07 1018 5 8 0.00 0.00
8:35 am 08:35 Cloudy with Mist and Fog 63 17.4 63 17.1 98 98 ENE 5 7 30.07 1018 2 3 0.00 0.00
8:55 am 08:55 Cloudy with Mist and Fog 64 17.5 63 17.2 98 98 NE 6 9 30.08 1019 2 3 0.00 0.00
9:15 am 09:15 Cloudy with Mist and Fog 64 17.7 63 17.4 98 98 N 3 6 30.09 1019 2 3 0.00 0.00
9:35 am 09:35 Cloudy with Mist and Fog 65 18.1 64 17.7 98 98 ESE 5 7 30.08 1019 3 4 0.00 0.00
9:55 am 09:55 Cloudy with Mist and Fog 65 18.2 64 17.5 96 96 E 6 9 30.08 1019 3 5 0.00 0.00
10:15 am 10:15 Cloudy with Mist and Fog 65 18.6 64 17.6 94 94 E 6 9 30.07 1018 5 8 0.00 0.00
10:35 am 10:35 Cloudy with Mist and Fog 66 18.9 64 17.8 93 93 ENE 3 6 30.07 1018 7 11 0.00 0.00
10:55 am 10:55 Cloudy 67 19.5 64 17.8 90 90 NE 3 6 30.06 1018 7 11 0.00 0.00
11:15 am 11:15 Mostly Cloudy 70 21.1 65 18.5 85 85 E 6 9 30.05 1018 10 16 0.00 0.00
11:35 am 11:35 Mostly Cloudy 70 21 64 18 83 83 S 3 6 30.04 1017 10 16 0.00 0.00
11:55 am 11:55 Partly Cloudy 72 22 65 18.3 80 80 SE 6 9 30.04 1017 10 16 0.00 0.00
12:15 pm 12:15 Partly Cloudy 72 22.3 66 18.7 80 80 E 5 7 30.04 1017 10 16 0.00 0.00
12:35 pm 12:35 Sunny 73 22.9 65 18.5 76 76 E 6 9 30.03 1017 10 16 0.00 0.00
12:55 pm 12:55 Sunny 74 23.5 65 18.3 73 73 ESE 5 7 30.02 1016 10 16 0.00 0.00
1:15 pm 13:15 Sunny 76 24.5 66 18.9 71 71 Calm 30.01 1016 10 16 0.00 0.00
1:35 pm 13:35 Sunny 77 25 66 19.1 70 70 Calm 29.99 1016 10 16 0.00 0.00
1:55 pm 13:55 Partly Cloudy 79 25.9 68 20.2 71 71 S 7 11 29.98 1015 10 16 0.00 0.00
2:15 pm 14:15 Partly Cloudy 79 26 67 19.2 66 66 SE 5 7 29.97 1015 10 16 0.00 0.00
2:35 pm 14:35 Partly Cloudy 80 26.5 67 19.5 65 65 SW 5 7 29.96 1015 10 16 0.00 0.00
2:55 pm 14:55 Partly Cloudy 81 27.2 67 19.3 62 62 SW 5 7 29.95 1014 10 16 0.00 0.00
3:15 pm 15:15 Mostly Cloudy 80 26.5 65 18.6 62 62 SW 3 6 29.94 1014 10 16 0.00 0.00
3:35 pm 15:35 Mostly Cloudy 82 27.5 66 18.7 59 59 WSW 9 15 29.93 1013 10 16 0.00 0.00
3:55 pm 15:55 Partly Cloudy 81 27.1 65 18.4 59 59 SW 8 13 29.92 1013 10 16 0.00 0.00
4:15 pm 16:15 Mostly Cloudy 79 25.9 65 18.5 64 64 SSW 8 13 29.91 1013 10 16 0.00 0.00
4:35 pm 16:35 Cloudy with Light Rain 78 25.4 66 19.1 68 68 SSW 7 11 29.90 1013 10 16 0.00 0.00
4:55 pm 16:55 Cloudy with Strong Thunderstorms 76 24.5 69 20.3 78 78 W 8 13 29.91 1013 10 16 0.00 0.00
5:15 pm 17:15 Cloudy with Thunderstorms 70 21.2 68 20.2 94 94 SW 14 22 29.92 1013 5 8 0.15 3.81
5:35 pm 17:35 Mostly Cloudy 71 21.6 65 18.5 83 83 Calm 29.91 1013 10 16 0.15 3.81
5:55 pm 17:55 Mostly Cloudy 73 22.7 67 19.7 83 83 Calm 29.90 1012 10 16 0.15 3.81
6:15 pm 18:15 Sunny 73 22.6 68 19.9 85 85 ENE 5 7 29.88 1012 10 16 0.00 0.00
6:35 pm 18:35 Sunny 74 23.1 69 20.3 84 84 NNE 3 6 29.87 1011 10 16 0.00 0.00
6:55 pm 18:55 Sunny 73 22.9 69 20.4 86 86 Calm 29.86 1011 10 16 0.00 0.00
7:15 pm 19:15 Sunny 73 22.9 69 20.7 87 87 ENE 3 6 29.86 1011 10 16 0.00 0.00
7:35 pm 19:35 Partly Cloudy 73 22.7 69 20.4 87 87 Calm 29.85 1011 10 16 0.00 0.00
7:55 pm 19:55 Partly Cloudy 74 23.3 70 20.9 86 86 Calm 29.82 1010 10 16 0.00 0.00
8:15 pm 20:15 Sunny 75 23.8 68 20 79 79 S 7 11 29.80 1009 10 16 0.00 0.00
8:35 pm 20:35 Sunny 75 23.7 68 20.1 80 80 Calm 29.80 1009 10 16 0.00 0.00
8:55 pm 20:55 Partly Cloudy 72 22.4 69 20.6 90 90 Calm 29.79 1009 10 16 0.00 0.00
9:15 pm 21:15 Mostly Cloudy with Nearby Thunderstorms 77 24.9 69 20.7 78 78 S 6 9 29.78 1009 10 16 0.00 0.00
9:35 pm 21:35 Mostly Cloudy 77 25.1 69 20.8 77 77 S 6 9 29.79 1009 10 16 0.00 0.00
9:55 pm 21:55 Clear 77 25 70 20.9 78 78 SW 6 9 29.80 1009 10 16 0.00 0.00
10:15 pm 22:15 Clear 77 24.9 70 20.9 79 79 SSW 9 15 29.77 1008 10 16 0.00 0.00
10:35 pm 22:35 Clear with Thunderstorms 77 25 70 21 79 79 SSW 7 11 29.79 1009 10 16 0.00 0.00
10:55 pm 22:55 Clear with Nearby Thunderstorms 78 25.5 69 20.7 75 75 SW 14 22 29.76 1008 10 16 0.00 0.00
11:15 pm 23:15 Partly Cloudy with Nearby Thunderstorms 78 25.4 69 20.5 74 74 SW 9 15 29.78 1009 10 16 0.00 0.00
11:35 pm 23:35 Clear with Thunderstorms 76 24.7 69 20.3 77 77 WSW 7 11 29.80 1009 10 16 0.00 0.00
11:55 pm 23:55 Mostly Cloudy with Thunderstorms 76 24.7 68 20.2 76 76 WSW 8 13 29.80 1009 10 16 0.00 0.00

Powered by AerisWeather